Change the Weather History Date:

Friday, March 14, 2014

  Actual Average Record
Temperature  
Mean Temperature 53 °F 53 °F  
Max Temperature 65 °F 63 °F 82 °F (2012)
Min Temperature 41 °F 44 °F 24 °F (1993)
Degree Days  
Heating Degree Days 12 12  
Month to date heating degree days 282 195  
Since 1 July heating degree days 3055 2681  
Cooling Degree Days 0 0  
Month to date cooling degree days 0 0  
Year to date cooling degree days 0 2  
Growing Degree Days 4 (Base 50)    
Moisture  
Dew Point 38 °F    
Average Humidity 60    
Maximum Humidity 77    
Minimum Humidity 43    
Precipitation  
Precipitation T in 0.15 in 1.40 in (1982)
Month to date precipitation 2.29 2.11  
Year to date precipitation 7.86 9.19  
Snow  
Snow 0.00 in 0.00 in T in (1999)
Month to date snowfall 1.9 0.3  
Since 1 July snowfall 5.9 4.3  
Snow Depth 0.00 in    
Sea Level Pressure  
Sea Level Pressure 30.08 in    
Wind  
Wind Speed 8 mph (SSW)    
Max Wind Speed 28 mph    
Max Gust Speed 35 mph    
Visibility 10 miles    
Events      
T = Trace of Precipitation, MM = Missing Value Source: NWS Daily Summary

Daily Weather History Graph

Daily Weather History Graph

Search for Another Location

Airport or City:

Trip Planner

Search our weather history database for the weather conditions in past years. The results will help you decide how hot, cold, wet, or windy it might be!

Date:

Astronomy

Mar. 14, 2014 Rise Set
Actual Time 7:20 AM CDT 7:15 PM CDT
Civil Twilight 6:55 AM CDT 7:40 PM CDT
Nautical Twilight 6:26 AM CDT 8:10 PM CDT
Astronomical Twilight 5:57 AM CDT 8:39 PM CDT
Moon 5:41 PM CDT (3/14) 5:57 AM CDT (3/14)
Length of Visible Light 12h 45m
Length of Day
11h 54m
Waxing Gibbous, 96% of the Moon is Illuminated
Mar 14
Waxing Gibbous
Mar 16
Full
Mar 23
Last Quarter
Mar 30
New
Apr 7
First Quarter

Hourly Weather History & Observations

Time (CDT) Temp. Windchill Dew Point Humidity Pressure Visibility Wind Dir Wind Speed Gust Speed Precip Events Conditions
12:53 AM 48.0 °F - 28.9 °F 48% 30.09 in 10.0 mi Calm Calm - N/A   Clear
1:53 AM 46.0 °F 44.8 °F 28.9 °F 51% 30.11 in 10.0 mi South 3.5 mph - N/A   Clear
2:53 AM 44.1 °F 40.1 °F 28.9 °F 55% 30.10 in 10.0 mi SSW 6.9 mph - N/A   Clear
3:53 AM 45.0 °F 43.5 °F 28.9 °F 53% 30.08 in 10.0 mi SW 3.5 mph - N/A   Clear
4:53 AM 44.1 °F 42.5 °F 28.9 °F 55% 30.09 in 10.0 mi SSW 3.5 mph - N/A   Clear
5:53 AM 44.1 °F - 28.9 °F 55% 30.11 in 10.0 mi Calm Calm - N/A   Partly Cloudy
6:53 AM 43.0 °F 41.3 °F 30.0 °F 60% 30.12 in 10.0 mi SW 3.5 mph - N/A   Scattered Clouds
7:53 AM 43.0 °F 41.3 °F 30.9 °F 62% 30.13 in 10.0 mi SSW 3.5 mph - N/A   Scattered Clouds
8:53 AM 48.9 °F - 34.0 °F 56% 30.13 in 10.0 mi SW 10.4 mph - N/A   Mostly Cloudy
9:53 AM 54.0 °F - 36.0 °F 51% 30.14 in 10.0 mi SW 12.7 mph - N/A   Scattered Clouds
10:53 AM 60.1 °F - 39.0 °F 46% 30.12 in 10.0 mi SW 19.6 mph 25.3 mph N/A   Scattered Clouds
11:53 AM 63.0 °F - 39.0 °F 41% 30.09 in 10.0 mi SW 17.3 mph 29.9 mph N/A   Mostly Cloudy
12:53 PM 61.0 °F - 39.0 °F 44% 30.09 in 10.0 mi SW 16.1 mph 34.5 mph N/A   Mostly Cloudy
1:53 PM 59.0 °F - 41.0 °F 51% 30.08 in 10.0 mi SSW 15.0 mph - N/A   Overcast
2:53 PM 61.0 °F - 44.1 °F 54% 30.05 in 10.0 mi SSW 17.3 mph - 0.00 in   Overcast
3:53 PM 62.1 °F - 44.1 °F 52% 30.04 in 10.0 mi SSW 10.4 mph - N/A   Overcast
4:53 PM 63.0 °F - 45.0 °F 52% 30.04 in 10.0 mi SW 15.0 mph - N/A   Mostly Cloudy
5:53 PM 64.0 °F - 45.0 °F 50% 30.04 in 10.0 mi SW 10.4 mph - N/A   Mostly Cloudy
6:53 PM 61.0 °F - 45.0 °F 56% 30.05 in 10.0 mi South 9.2 mph - N/A   Mostly Cloudy
7:53 PM 57.9 °F - 45.0 °F 62% 30.05 in 10.0 mi SSE 9.2 mph - N/A   Mostly Cloudy
8:53 PM 57.0 °F - 46.0 °F 67% 30.06 in 10.0 mi South 9.2 mph - N/A   Mostly Cloudy
9:53 PM 55.0 °F - 45.0 °F 69% 30.06 in 10.0 mi SW 4.6 mph - N/A   Mostly Cloudy
10:53 PM 54.0 °F - 44.1 °F 69% 30.07 in 10.0 mi Calm Calm - N/A   Mostly Cloudy
11:53 PM 51.1 °F - 44.1 °F 77% 30.07 in 10.0 mi Calm Calm - N/A   Mostly Cloudy